Find Local Weather

World > North America > United States > Ohio

Cleveland, Ohio Regional Weather

Lat: 41.48N, Lon: 81.68W
Wx Zone: OHZ011
Feedback
Expires:201809210100;;955899
ASUS41 KCLE 210012
RWRCLE
OHIO REGIONAL WEATHER ROUNDUP
NATIONAL WEATHER SERVICE WILMINGTON, OH
800 PM EDT THU SEP 20 2018

NOTE: "FAIR" INDICATES FEW OR NO CLOUDS BELOW 12,000 FEET WITH NO
SIGNIFICANT WEATHER AND/OR OBSTRUCTIONS TO VISIBILITY.


OHZ009>014-019>023-028>033-038-089-210100-
   NORTHEAST OHIO
  
CITY           SKY/WX    TMP DP  RH WIND       PRES   REMARKS
CLE-HOPKINS    FAIR      79  70  74 SE9       30.02S                  
CLE-LAKEFRONT  FAIR      81  69  67 SE12      29.98F                  
CUY CO. ARPT   PTCLDY    79  72  78 S12       30.02S                  
LORAIN-ELYRIA  FAIR      76  67  73 SE7       30.01S                  
ASHTABULA      FAIR      76  71  85 SE7       30.05S                  
AKRON-CANTON   FAIR      80  70  71 S8        30.06R                  
WOOSTER        FAIR      76  71  85 S7        30.05S                  
MANSFIELD      FAIR      81  70  69 S13       30.04R                  
YOUNGSTOWN     MOCLDY    75  71  87 SE8       30.07R                  
$$
 

SKY/WX - Weather  TMP - Temperature  DP - Dew Point  RH - Relative Humidity
WIND - Wind Direction/Speed PRES - Barometric Pressure